{"data":{"norad_id":48485,"epoch":"2026-09-19T18:39:38.210112Z","epoch_age_seconds":99615,"freshness":"FRESH","line1":"1 48485U 21040BK  26262.77752558 -.00002579  00000+0 -71362-4 0  9997","line2":"2 48485  53.1599  10.4812 0001265  79.3663 280.7481 15.31695437296200","mean_motion":15.31695437,"eccentricity":0.0001265,"inclination_deg":53.1599,"raan_deg":10.4812,"arg_perigee_deg":79.3663,"mean_anomaly_deg":280.7481,"bstar":-7.1362e-5,"rev_number":29620,"period_min":94.013468031243,"perigee_km":469.88721266441,"apogee_km":471.61998198554,"semimajor_km":6848.890597325,"source":"CELESTRAK","updated_at":"2026-09-20T09:00:39.131572Z"}}